GW4812 Weather Reports


time (UTC)temp
C
wind
direction
speed
KPH
gust
KPH
rain 1hr
cm
rain 24hr
cm
rain mn
cm
humidity
%
barometer
mb
20260504175054 20 223 3.2 8.0 0.00 0.00 0.00 37 1011.0
20260504174555 20 199 3.2 4.8 0.00 0.00 0.00 38 1011.0
20260504174055 20 206 3.2 6.4 0.00 0.00 0.00 38 1011.0
20260504173554 20 249 3.2 4.8 0.00 0.00 0.00 38 1011.0
20260504173055 20 180 6.4 8.0 0.00 0.00 0.00 37 1011.0
20260504172558 20 153 4.8 8.0 0.00 0.00 0.00 39 1011.0
20260504172055 20 180 3.2 4.8 0.00 0.00 0.00 39 1011.0
20260504171554 20 202 4.8 6.4 0.00 0.00 0.00 39 1011.0
20260504171054 20 347 3.2 6.4 0.00 0.00 0.00 40 1011.0
20260504170554 19 329 1.6 4.8 0.00 0.00 0.00 40 1011.0
20260504151055 18 338 4.8 6.4 0.00 0.00 0.00 41 1013.0
20260504150555 18 223 3.2 6.4 0.00 0.00 0.00 40 1013.0
20260504141055 16 246 3.2 6.4 0.00 0.00 0.00 47 1013.0
20260504140557 16 188 4.8 9.7 0.00 0.00 0.00 48 1013.0
20260504130555 13 217 1.6 3.2 0.00 0.00 0.00 53 1014.0
20260504110553 4 237 3.2 3.2 0.00 0.00 0.00 78 1014.0
20260504100553 3 154 0.0 0.0 0.00 0.00 0.00 83 1014.0
20260504081553 5 271 3.2 4.8 0.00 0.00 0.00 80 1014.0
20260504081052 5 260 3.2 3.2 0.00 0.00 0.00 80 1014.0
20260504080552 5 256 1.6 3.2 0.00 0.00 0.00 80 1014.0
20260504050552 5 287 1.6 3.2 0.00 0.00 0.00 79 1013.0
20260504045552 5 241 1.6 1.6 0.00 0.00 0.00 80 1013.0
20260504045053 5 273 1.6 3.2 0.00 0.00 0.00 79 1013.0
20260504044553 5 235 0.0 1.6 0.00 0.00 0.00 79 1013.0
20260504044052 5 271 1.6 1.6 0.00 0.00 0.00 79 1013.0
20260504043553 5 175 0.0 1.6 0.00 0.00 0.00 79 1013.0
20260504043052 5 213 0.0 0.0 0.00 0.00 0.00 78 1013.0
20260504042553 5 234 0.0 1.6 0.00 0.00 0.00 78 1013.0
20260504042052 5 234 1.6 1.6 0.00 0.00 0.00 78 1013.0
20260504041554 5 274 3.2 3.2 0.00 0.00 0.00 78 1013.0
20260504041053 5 268 0.0 1.6 0.00 0.00 0.00 77 1013.0
20260504040553 5 231 1.6 1.6 0.00 0.00 0.00 76 1013.0
20260504040052 5 196 1.6 1.6 0.00 0.00 0.00 76 1013.0
20260504035552 5 238 1.6 1.6 0.00 0.00 0.00 76 1013.0
20260504035054 5 264 1.6 3.2 0.00 0.00 0.00 76 1013.0
20260504034552 5 256 1.6 3.2 0.00 0.00 0.00 76 1013.0
20260504034053 5 234 1.6 1.6 0.00 0.00 0.00 76 1013.0
20260504033552 5 242 1.6 3.2 0.00 0.00 0.00 75 1013.0
20260504033053 5 246 3.2 3.2 0.00 0.00 0.00 75 1013.0
20260504032552 6 280 0.0 0.0 0.00 0.00 0.00 75 1013.0
20260504032053 6 220 1.6 3.2 0.00 0.00 0.00 75 1013.0
20260504031553 6 265 3.2 3.2 0.00 0.00 0.00 74 1013.0
20260504031053 6 269 1.6 1.6 0.00 0.00 0.00 74 1013.0
20260504030552 6 241 1.6 3.2 0.00 0.00 0.00 74 1013.0
20260504030053 6 249 1.6 3.2 0.00 0.00 0.00 73 1013.0
20260504025553 6 224 0.0 1.6 0.00 0.00 0.00 73 1013.0
20260504025053 6 246 1.6 3.2 0.00 0.00 0.00 72 1013.0
20260504024554 6 259 1.6 3.2 0.00 0.00 0.00 72 1013.0
20260504024053 6 260 1.6 3.2 0.00 0.00 0.00 71 1013.0
20260504023552 6 234 0.0 1.6 0.00 0.00 0.00 70 1013.0
20260504023053 6 240 1.6 3.2 0.00 0.00 0.00 70 1013.0
20260504022553 6 221 1.6 3.2 0.00 0.00 0.00 70 1013.0
20260504022052 6 266 1.6 3.2 0.00 0.00 0.00 70 1013.0
20260504021552 7 256 1.6 3.2 0.00 0.00 0.00 69 1013.0
20260504021052 7 261 3.2 3.2 0.00 0.00 0.00 69 1013.0
20260504020553 7 263 3.2 3.2 0.00 0.00 0.00 69 1013.0
20260504020052 7 252 1.6 1.6 0.00 0.00 0.00 68 1013.0
20260504015552 7 258 1.6 3.2 0.00 0.00 0.00 68 1013.0
20260504015052 7 249 1.6 1.6 0.00 0.00 0.00 67 1013.0
20260504014552 7 262 1.6 1.6 0.00 0.00 0.00 67 1013.0
20260504014052 7 241 0.0 1.6 0.00 0.00 0.00 66 1013.0
20260504013552 7 276 1.6 3.2 0.00 0.00 0.00 66 1013.0
20260504013052 8 265 1.6 3.2 0.00 0.00 0.00 65 1012.0
20260504012553 8 254 1.6 3.2 0.00 0.00 0.00 64 1012.0
20260504012055 8 270 1.6 3.2 0.00 0.00 0.00 63 1012.0
20260504011553 8 262 1.6 3.2 0.00 0.00 0.00 62 1012.0
20260504011052 8 253 1.6 1.6 0.00 0.00 0.00 62 1012.0
20260504010553 8 240 1.6 3.2 0.00 0.00 0.00 61 1012.0
20260504010052 9 171 0.0 1.6 0.00 0.00 0.00 60 1012.0
20260504005552 9 259 1.6 3.2 0.00 0.00 0.00 58 1012.0
20260504005053 9 252 1.6 3.2 0.00 0.00 0.00 55 1012.0
20260504004553 10 244 1.6 1.6 0.00 0.00 0.00 55 1012.0
20260504004052 10 269 0.0 1.6 0.00 0.00 0.00 55 1012.0
20260504003553 10 257 1.6 3.2 0.00 0.00 0.00 54 1012.0
20260504003053 11 261 1.6 3.2 0.00 0.00 0.00 52 1012.0
20260504002552 11 255 1.6 3.2 0.00 0.00 0.00 48 1012.0
20260504002053 11 242 0.0 0.0 0.00 0.00 0.00 45 1012.0
20260504001552 12 183 0.0 1.6 0.00 0.00 0.00 44 1012.0
20260504001053 12 282 0.0 1.6 0.00 0.00 0.00 43 1011.0
20260504000552 12 0 0.0 0.0 0.00 0.00 0.00 40 1011.0
20260504000053 13 266 0.0 1.6 0.00 0.00 0.00 39 1011.0
20260503235552 13 0 0.0 0.0 0.00 0.00 0.00 37 1011.0
20260503235052 13 0 0.0 0.0 0.00 0.00 0.00 37 1011.0
20260503234553 13 242 3.2 6.4 0.00 0.00 0.00 35 1011.0
20260503234052 13 196 1.6 4.8 0.00 0.00 0.00 36 1011.0
20260503233553 14 263 0.0 3.2 0.00 0.00 0.00 37 1011.0
20260503233053 14 220 0.0 3.2 0.00 0.00 0.00 35 1011.0
20260503232553 14 103 0.0 1.6 0.00 0.00 0.00 34 1011.0
20260503232052 14 200 1.6 3.2 0.00 0.00 0.00 35 1011.0
20260503231552 14 0 0.0 0.0 0.00 0.00 0.00 33 1011.0
20260503231052 14 85 0.0 1.6 0.00 0.00 0.00 34 1011.0
20260503230553 14 224 0.0 1.6 0.00 0.00 0.00 35 1011.0
20260503230053 14 187 0.0 1.6 0.00 0.00 0.00 35 1011.0
20260503225552 15 258 0.0 1.6 0.00 0.00 0.00 35 1011.0
20260503225052 15 203 1.6 3.2 0.00 0.00 0.00 32 1010.0
20260503224553 15 28 3.2 6.4 0.00 0.00 0.00 32 1011.0
20260503224052 15 206 3.2 6.4 0.00 0.00 0.00 31 1011.0
20260503223552 15 184 1.6 3.2 0.00 0.00 0.00 32 1011.0
20260503223052 15 170 0.0 3.2 0.00 0.00 0.00 32 1010.0
20260503222553 15 202 4.8 9.7 0.00 0.00 0.00 31 1010.0
20260503222053 15 200 1.6 3.2 0.00 0.00 0.00 32 1010.0
20260503221552 15 125 1.6 4.8 0.00 0.00 0.00 30 1010.0
20260503221052 15 69 3.2 6.4 0.00 0.00 0.00 30 1010.0
20260503220553 16 42 4.8 12.9 0.00 0.00 0.00 30 1010.0
20260503220052 16 161 1.6 3.2 0.00 0.00 0.00 30 1010.0
20260503215552 16 216 3.2 4.8 0.00 0.00 0.00 30 1010.0
20260503215052 16 228 3.2 9.7 0.00 0.00 0.00 31 1010.0
20260503214552 16 198 4.8 9.7 0.00 0.00 0.00 30 1010.0
20260503214052 16 267 0.0 1.6 0.00 0.00 0.00 30 1010.0
20260503213553 16 20 1.6 4.8 0.00 0.00 0.00 30 1010.0
20260503213052 16 276 1.6 3.2 0.00 0.00 0.00 30 1010.0
20260503212552 16 311 1.6 6.4 0.00 0.00 0.00 30 1010.0
20260503212052 16 255 3.2 4.8 0.00 0.00 0.00 32 1010.0
20260503211553 15 83 3.2 6.4 0.00 0.00 0.00 31 1010.0
20260503211052 16 136 3.2 6.4 0.00 0.00 0.00 31 1010.0
20260503210552 16 197 3.2 8.0 0.00 0.00 0.00 31 1010.0
20260503210053 16 249 4.8 6.4 0.00 0.00 0.00 30 1010.0
20260503205552 16 207 3.2 6.4 0.00 0.00 0.00 32 1010.0
20260503205052 15 223 3.2 6.4 0.00 0.00 0.00 33 1010.0
20260503204552 15 213 4.8 12.9 0.00 0.00 0.00 30 1010.0
20260503204052 15 193 6.4 14.5 0.00 0.00 0.00 31 1010.0
20260503203553 15 14 3.2 8.0 0.00 0.00 0.00 32 1010.0
20260503203053 15 340 3.2 6.4 0.00 0.00 0.00 31 1011.0
20260503202552 15 296 4.8 9.7 0.00 0.00 0.00 32 1010.0
20260503202052 15 207 3.2 9.7 0.00 0.00 0.00 31 1010.0
20260503201552 15 8 6.4 9.7 0.00 0.00 0.00 31 1011.0
20260503201054 15 239 3.2 6.4 0.00 0.00 0.00 31 1010.0
20260503200552 15 220 4.8 9.7 0.00 0.00 0.00 30 1011.0
20260503200052 15 126 0.0 3.2 0.00 0.00 0.00 33 1011.0
20260503195552 15 237 3.2 4.8 0.00 0.00 0.00 32 1011.0
20260503195053 15 80 3.2 8.0 0.00 0.00 0.00 32 1011.0
20260503194552 15 87 1.6 3.2 0.00 0.00 0.00 33 1011.0
20260503194054 15 262 4.8 9.7 0.00 0.00 0.00 32 1011.0
20260503193552 14 6 1.6 3.2 0.00 0.00 0.00 36 1011.0
20260503193052 14 229 8.0 17.7 0.00 0.00 0.00 33 1011.0
20260503192552 14 190 6.4 11.3 0.00 0.00 0.00 33 1011.0
20260503192052 14 87 3.2 8.0 0.00 0.00 0.00 34 1011.0
20260503191555 15 0 1.6 4.8 0.00 0.00 0.00 34 1011.0
20260503191052 14 190 3.2 8.0 0.00 0.00 0.00 34 1011.0
20260503190552 14 307 1.6 3.2 0.00 0.00 0.00 35 1011.0
20260503190052 13 203 3.2 6.4 0.00 0.00 0.00 34 1011.0
20260503185553 13 59 1.6 4.8 0.00 0.00 0.00 39 1011.0
20260503185052 13 257 3.2 9.7 0.00 0.00 0.00 37 1011.0
20260503184553 13 41 4.8 9.7 0.00 0.00 0.00 36 1011.0
20260503184052 13 0 3.2 4.8 0.00 0.00 0.00 38 1011.0
20260503183553 13 119 3.2 6.4 0.00 0.00 0.00 35 1011.0
20260503183052 13 66 6.4 11.3 0.00 0.00 0.00 35 1011.0
20260503182552 12 219 6.4 14.5 0.00 0.00 0.00 36 1011.0
20260503182052 12 285 4.8 8.0 0.00 0.00 0.00 37 1011.0
20260503181553 12 269 3.2 6.4 0.00 0.00 0.00 36 1011.0
20260503181052 12 353 3.2 8.0 0.00 0.00 0.00 37 1011.0
20260503180552 12 238 4.8 11.3 0.00 0.00 0.00 38 1011.0
20260503180052 12 354 6.4 12.9 0.00 0.00 0.00 39 1012.0
20260503175552 12 163 3.2 8.0 0.00 0.00 0.00 38 1011.0